Retour au catalogue

METEOSAT 2 AKM

MAGE 1

ActifGEO
NORAD 20837·ROCKET BODY·🇪🇺 EU

Lancé Jun 19, 1981 depuis Guiana Space Centre

Loading…

TLE

FraisSource: Space-Track

Époque: Sep 14, 2026, 22:15 UTC

1 20837U 81057F   26257.92754743 -.00000250  00000-0  00000-0 0  9992
2 20837   7.3774 297.7613 0074345 213.7829 156.0564  0.99367842120299

Suivez METEOSAT 2 AKM en temps réel avec AllMySat

Download on the App Store